Погода в Рощине

Россия / Сахалинская область     49°57′25″N   142°45′59″E
темп.,
°C
ветер,
м/с
пор.,
м/с
влажн.,
%
обл.,
%
осадки,
мм/ч
давл.,
гПа
погр.,
м
13 июня, вс
вс1323:00+13юв2599100 2.0 1002264
02:00+13ююв13100100 0.6 1001220
05:00+13в0199100 1.5 1001118
08:00+13сз1298100 0.3 1002184
11:00+9сз3594100 0.5 1004295
14:00+8сз3589100 0.0 1005353
17:00+7зсз3486100 0.0 1006400
20:00+6сз3586100 0.1 1008350
14 июня, пн
пн1423:00+5сз2593100 0.8 1009287
02:00+6сз2895100 0.4 1009409
05:00+6ссз3795100 0.6 1010388
08:00+7ссз369688 0.0 1011309
11:00+11с4580100 0.0 1011468
14:00+15св3370100 0.0 1011791
17:00+13св1178100 0.0 1012358
20:00+14ююв117999 0.0 101281
15 июня, вт
вт1523:00+9ююв22955 0.0 101331
02:00+7ююв249980 0.0 1014112
05:00+7ю359899 0.0 1014211
08:00+8юв229394 0.0 1015273
11:00+14ююв4467100 0.0 1013545
14:00+17юв556367 0.0 1012816
17:00+16юв66689 0.0 1011722
20:00+12юв588457 0.0 1012420
16 июня, ср
ср1623:00+7ююв4796100 0.0 1013317
02:00+7ююв3498100 0.0 1013238
05:00+7ююв239789 0.0 1012186
08:00+10юв339079 0.0 1011293
11:00+15юв447033 0.0 1010531
14:00+22ююв56535 0.0 1008957
17:00+22ююв56525 0.0 1007909
20:00+17ююв46725 0.0 1007218
17 июня, чт
чт1723:00+11ююз22912 0.0 100821
02:00+10ююз11910 0.0 100813
05:00+10юз11940 0.0 100814
08:00+15ююв22805 0.0 1008236
11:00+21юв33564 0.0 1006765
14:00+24ююв55485 0.0 10051252
17:00+23ююв55530 0.0 10041000
20:00+19юв347336 0.0 1005271